User: anonymous   Login
Location: Aucun
(42.9667°N, 0.1667°W)
Time: 06:41:25
(UTC+00:00)
Language:

STARLINK-1063 - Orbit

View from above orbital plane
View from above orbital plane
View from above satellite
View from above satellite

Ground track
Ground track

The orbit data is extracted from the following two-line orbital elements,

1 44768C 19074BH  20152.98440980  .00007456  00000-0  51052-3 0  1521
2 44768  52.9983 328.4703 0001594 102.9534 120.6795 15.05585660    19
Epoch (UTC): 31 May 2020 23:37:33
Eccentricity: 0.0001594
inclination: 52.9983°
perigee height: 548 km
apogee height: 551 km
right ascension of ascending node: 328.4703°
argument of perigee: 102.9534°
revolutions per day: 15.05585660
mean anomaly at epoch: 120.6795°
orbit number at epoch: 1

The dashed part of the orbit path shows where the satellite is in the earth's shadow,  

DLR